This is the latest recevied weather packets stored in our database for station/object WP3OF. If no packets are shown the sender has not sent any weather packets the latest 1 day(s).
| Time | Temp. | Humidity | Pressure | Rain* | Wind** | Luminosity | Snow |
|---|---|---|---|---|---|---|---|
| 1777993138 | - | - | - | 0 mm | 2.24 m/s, 20° | - | - |
| 1777992836 | - | - | - | 0 mm | 2.24 m/s, 45° | - | - |
| 1777992533 | - | - | - | 0 mm | 3.13 m/s, 32° | - | - |
| 1777992232 | - | - | - | 0 mm | 2.24 m/s, 31° | - | - |
| 1777991929 | - | - | - | 0 mm | 4.02 m/s, 28° | - | - |
| 1777991627 | - | - | - | 0 mm | 3.13 m/s, 28° | - | - |
| 1777991323 | - | - | - | 0 mm | 1.79 m/s, 23° | - | - |
| 1777991021 | - | - | - | 0 mm | 1.79 m/s, 15° | - | - |
| 1777990718 | - | - | - | 0 mm | 3.58 m/s, 20° | - | - |
| 1777990415 | - | - | - | 0 mm | 3.13 m/s, 4° | - | - |
| 1777990112 | - | - | - | 0 mm | 2.68 m/s, 23° | - | - |
| 1777989808 | - | - | - | 0 mm | 3.13 m/s, 30° | - | - |
| 1777989506 | - | - | - | 0 mm | 3.58 m/s, 35° | - | - |
| 1777989202 | - | - | - | 0 mm | 4.02 m/s, 39° | - | - |
| 1777988898 | - | - | - | 0 mm | 3.58 m/s, 32° | - | - |
| 1777988595 | - | - | - | 0 mm | 4.02 m/s, 24° | - | - |
| 1777988291 | - | - | - | 0 mm | 1.34 m/s, 28° | - | - |
| 1777987989 | - | - | - | 0 mm | 0.89 m/s, 14° | - | - |
| 1777987684 | - | - | - | 0 mm | 0.89 m/s, 40° | - | - |
| 1777987381 | - | - | - | 0 mm | 2.24 m/s, 22° | - | - |
| 1777987079 | - | - | - | 0 mm | 2.68 m/s, 42° | - | - |
| 1777986776 | - | - | - | 0 mm | 1.34 m/s, 38° | - | - |
| 1777986473 | - | - | - | 0 mm | 0.89 m/s, 48° | - | - |
| 1777986172 | - | - | - | 0 mm | 0.89 m/s, 159° | - | - |
| 1777985868 | - | - | - | 0 mm | 0.89 m/s, 139° | - | - |
* Rain latest hour (hover to see other rain measurements)
** Current wind speed in m/s (hover to see current wind gust speed)